Waarnemingen

Advertentie
Mijn weer
Palermo/Punta Raisi, Italië (16405): temperatuur & dauwpunt: 20.09.2018 09:00:00 - 26.09.2018 09:00:00 (CEST)Palermo/Punta Raisi, Italië (16405): windsnelheid: 20.09.2018 09:00:00 - 26.09.2018 09:00:00 (CEST)Palermo/Punta Raisi, Italië (16405): windrichting: 20.09.2018 09:00:00 - 26.09.2018 09:00:00 (CEST)Palermo/Punta Raisi, Italië (16405): luchtdruk: 20.09.2018 09:00:00 - 26.09.2018 09:00:00 (CEST)Palermo/Punta Raisi, Italië (16405): zicht: 20.09.2018 09:00:00 - 26.09.2018 09:00:00 (CEST)Palermo/Punta Raisi, Italië (16405): neerslag: 20.09.2018 09:00:00 - 26.09.2018 09:00:00 (CEST)
Datum & Tijd tt [°C] td [°C] ff [km/u] ff [kn] dd ppp [hPa] vv [km] rr [mm]
26.09.2018 09:00:00 21,0 12,0 29 16 ONO - 10 -
26.09.2018 08:00:00 21,6 12,9 31 17 ONO 1023,7 10 -
26.09.2018 07:00:00 22,0 13,0 34 18 ONO - 10 -
26.09.2018 06:00:00 22,0 14,0 35 19 ONO - 10 -
26.09.2018 05:00:00 22,6 13,3 29 16 ONO 1022,6 10 0,0
26.09.2018 04:00:00 23,0 14,0 31 17 ONO - 10 -
26.09.2018 03:00:00 24,0 15,0 34 18 ONO - 10 -
26.09.2018 02:00:00 23,7 16,5 24 13 ONO 1022,0 10 -
26.09.2018 01:00:00 23,0 16,0 24 13 O - 10 -
26.09.2018 00:00:00 24,0 17,0 28 15 O - 10 -
25.09.2018 23:00:00 23,4 18,0 28 15 O 1021,6 10 0,0
25.09.2018 22:00:00 24,0 18,0 22 12 O - 10 -
25.09.2018 21:00:00 25,0 18,0 26 14 ONO - 10 -
25.09.2018 20:00:00 24,2 18,7 28 15 ONO 1020,4 30 -
25.09.2018 19:00:00 25,0 18,0 29 16 ONO - 10 -
25.09.2018 18:00:00 25,0 20,0 29 16 ONO - 4,0 -
25.09.2018 17:00:00 26,2 21,4 9 5 N 1019,1 10 0,0
25.09.2018 16:00:00 26,0 21,0 11 6 N - 10 -
25.09.2018 15:00:00 26,0 21,0 13 7 NNW - 10 -
25.09.2018 14:00:00 25,7 20,4 13 7 NNW 1019,9 10 -
25.09.2018 13:00:00 25,0 21,0 18 10 NW - 10 -
25.09.2018 12:00:00 25,0 21,0 18 10 W - 10 -
25.09.2018 11:00:00 24,6 20,6 15 8 WZW 1019,4 10 0,0
25.09.2018 10:00:00 24,0 20,0 9 5 W - 10 -
25.09.2018 09:00:00 24,0 19,0 5 3 Z - 10 -
25.09.2018 08:00:00 21,3 18,1 5 3 Z 1017,8 10 -
25.09.2018 07:00:00 21,0 18,0 5 3 Z - 10 -
25.09.2018 06:00:00 22,0 19,0 4 2 OZO - 10 -
25.09.2018 05:00:00 21,3 18,3 8 4 ZZO 1017,0 10 0,0
25.09.2018 04:00:00 23,0 19,0 8 4 ONO - 10 -
25.09.2018 03:00:00 23,0 18,0 9 5 ONO - 10 -
25.09.2018 02:00:00 23,2 20,1 11 6 NO 1017,7 10 -
25.09.2018 01:00:00 23,0 20,0 9 5 NNO - 10 -
25.09.2018 00:00:00 23,0 20,0 4 2 - - 10 -
24.09.2018 23:00:00 23,1 20,2 4 2 - 1017,1 10 0,0
24.09.2018 22:00:00 24,0 21,0 5 3 NO - 10 -
24.09.2018 21:00:00 25,0 22,0 5 3 NNW - 10 -
24.09.2018 20:00:00 25,1 21,3 5 3 NW 1016,1 10 -
24.09.2018 19:00:00 26,0 21,0 9 5 WNW - 10 -
24.09.2018 18:00:00 26,0 22,0 11 6 WNW - 10 -
24.09.2018 17:00:00 25,6 21,8 22 12 WNW 1015,6 10 0,0
24.09.2018 16:00:00 26,0 22,0 37 20 WNW - 10 -
24.09.2018 15:00:00 26,0 21,0 21 11 W - 10 -
24.09.2018 14:00:00 25,8 21,2 24 13 W 1015,5 10 -
24.09.2018 13:00:00 27,0 21,0 26 14 WZW - 10 -
24.09.2018 12:00:00 28,0 20,0 24 13 ZW - 10 -
24.09.2018 11:00:00 27,2 19,6 26 14 ZW 1016,7 10 0,0
24.09.2018 10:00:00 26,0 19,0 26 14 ZZW - 10 -
24.09.2018 09:00:00 25,0 19,0 26 14 Z - 10 -
24.09.2018 08:00:00 23,8 19,0 22 12 ZZW 1016,5 10 -
24.09.2018 07:00:00 23,0 18,0 16 9 Z - 10 -
24.09.2018 06:00:00 23,0 18,0 13 7 Z - 10 -
24.09.2018 05:00:00 23,2 18,9 21 11 ZZW 1017,1 10 0,0
24.09.2018 04:00:00 23,0 20,0 22 12 ZZW - 10 -
24.09.2018 03:00:00 23,0 20,0 11 6 Z - 10 -
24.09.2018 02:00:00 24,0 21,0 15 8 ZW - 10 -
24.09.2018 01:00:00 24,0 21,0 5 3 ZZO - 10 -
24.09.2018 00:00:00 25,0 21,0 5 3 NW - 10 -
23.09.2018 23:00:00 24,8 21,3 8 4 NW 1019,7 10 0,0
23.09.2018 22:00:00 25,0 21,0 5 3 NW - 10 -
23.09.2018 21:00:00 25,0 21,0 5 3 WNW - 10 -
23.09.2018 20:00:00 25,1 21,2 8 4 NW 1019,5 10 -
23.09.2018 19:00:00 25,0 21,0 9 5 WNW - 9 -
23.09.2018 18:00:00 26,0 22,0 11 6 NW - 10 -
23.09.2018 17:00:00 25,9 21,2 9 5 N 1019,6 10 0,0
23.09.2018 16:00:00 26,0 22,0 13 7 N - 10 -
23.09.2018 15:00:00 26,0 21,0 11 6 NNO - 10 -
23.09.2018 14:00:00 26,3 21,6 11 6 N 1020,5 10 -
23.09.2018 13:00:00 26,0 21,0 9 5 N - 10 -
23.09.2018 12:00:00 26,0 22,0 8 4 NW - 10 -
23.09.2018 11:00:00 24,8 21,1 9 5 W 1021,1 10 0,0
23.09.2018 10:00:00 24,0 21,0 11 6 WZW - 10 -
23.09.2018 09:00:00 24,0 21,0 5 3 ZZW - 10 -
23.09.2018 08:00:00 22,0 19,8 5 3 Z 1019,6 10 -
23.09.2018 07:00:00 21,0 19,0 8 4 Z - 10 -
23.09.2018 06:00:00 21,0 19,0 5 3 ZZO - 10 -
23.09.2018 05:00:00 22,0 19,2 5 3 Z 1018,9 10 0,0
23.09.2018 04:00:00 22,0 19,0 5 3 Z - 10 -
23.09.2018 03:00:00 22,0 19,0 4 2 ZZO - 10 -
23.09.2018 02:00:00 22,3 19,7 5 3 ZO 1019,2 10 -
23.09.2018 01:00:00 24,0 20,0 2 1 - - 10 -
23.09.2018 00:00:00 23,0 20,0 8 4 ZO - 10 -
22.09.2018 23:00:00 23,4 20,1 8 4 Z 1018,9 10 0,0
22.09.2018 22:00:00 25,0 21,0 4 2 - - 10 -
22.09.2018 21:00:00 25,0 20,0 5 3 ZZW - 10 -
22.09.2018 20:00:00 25,2 20,9 18 10 ONO 1017,5 10 -
22.09.2018 19:00:00 26,0 21,0 21 11 NO - 10 -
22.09.2018 18:00:00 27,0 20,0 21 11 ONO - 10 -
22.09.2018 17:00:00 27,2 20,9 22 12 NO 1016,5 10 0,0
22.09.2018 16:00:00 27,0 20,0 21 11 ONO - 10 -
22.09.2018 15:00:00 27,0 21,0 16 9 NO - 10 -
22.09.2018 14:00:00 24,9 20,6 11 6 NNO 1017,2 10 -
22.09.2018 13:00:00 26,0 20,0 15 8 NNO - 10 -
22.09.2018 12:00:00 26,0 20,0 9 5 WZW - 10 -
22.09.2018 11:00:00 26,3 20,2 5 3 NW 1016,5 10 0,0
22.09.2018 10:00:00 26,0 20,0 8 4 NW - 10 -
22.09.2018 09:00:00 25,0 19,0 9 5 NO - 10 -
22.09.2018 08:00:00 24,8 19,2 9 5 O 1015,0 10 -
22.09.2018 07:00:00 25,0 18,0 15 8 Z - 10 -
22.09.2018 06:00:00 25,0 19,0 9 5 Z - 10 -
22.09.2018 05:00:00 24,9 18,5 9 5 ZO 1014,2 10 0,0
22.09.2018 04:00:00 25,0 19,0 13 7 Z - 10 -
22.09.2018 03:00:00 24,0 19,0 16 9 Z - 10 -
22.09.2018 02:00:00 24,4 19,1 13 7 Z 1014,8 10 -
22.09.2018 01:00:00 24,0 19,0 15 8 Z - 10 -
22.09.2018 00:00:00 24,0 19,0 16 9 ZZW - 10 -
21.09.2018 23:00:00 25,7 17,6 16 9 Z 1014,4 10 0,0
21.09.2018 22:00:00 25,0 18,0 18 10 ZZW - 10 -
21.09.2018 21:00:00 25,0 18,0 16 9 Z - 10 -
21.09.2018 20:00:00 25,2 17,6 16 9 Z 1013,7 10 -
21.09.2018 19:00:00 25,0 18,0 18 10 Z - 10 -
21.09.2018 18:00:00 26,0 18,0 28 15 ZZW - 10 -
21.09.2018 17:00:00 27,2 18,5 24 13 ZZW 1013,6 10 0,0
21.09.2018 16:00:00 27,0 18,0 15 8 Z - 10 -
21.09.2018 15:00:00 26,0 19,0 26 14 ZZW - 10 -
21.09.2018 14:00:00 27,0 18,7 21 11 ZZW 1013,9 10 -
21.09.2018 13:00:00 26,0 19,0 21 11 ZZW - 10 -
21.09.2018 12:00:00 25,0 20,0 15 8 ZZW - 10 -
21.09.2018 11:00:00 25,1 19,9 24 13 ZW 1014,5 10 0,0
21.09.2018 10:00:00 25,0 18,0 22 12 ZZW - 10 -
21.09.2018 09:00:00 25,0 18,0 18 10 Z - 10 -
21.09.2018 08:00:00 24,6 17,5 15 8 Z 1013,3 10 -
21.09.2018 07:00:00 24,0 17,0 15 8 ZZW - 10 -
21.09.2018 06:00:00 24,0 17,0 15 8 Z - 10 -
21.09.2018 05:00:00 24,3 17,7 16 9 Z 1013,5 10 0,0
21.09.2018 04:00:00 24,0 18,0 16 9 Z - 10 -
21.09.2018 03:00:00 24,0 17,0 11 6 Z - 10 -
21.09.2018 02:00:00 24,3 17,3 11 6 ZZW 1014,5 10 -
21.09.2018 01:00:00 24,0 17,0 16 9 ZZW - 10 -
21.09.2018 00:00:00 24,0 17,0 13 7 Z - 10 -
20.09.2018 23:00:00 23,9 17,2 15 8 ZZW 1015,3 10 0,0
20.09.2018 22:00:00 25,0 18,0 21 11 ZZW - 10 -
20.09.2018 21:00:00 25,0 18,0 18 10 ZZW - 10 -
20.09.2018 20:00:00 24,9 17,9 5 3 Z 1014,6 10 -
20.09.2018 19:00:00 23,0 20,0 22 12 O - 10 -
20.09.2018 18:00:00 24,0 19,0 22 12 ONO - 10 -
20.09.2018 17:00:00 26,9 19,2 13 7 WZW 1014,9 10 0,0
20.09.2018 16:00:00 27,0 20,0 22 12 ZW - 10 -
20.09.2018 15:00:00 26,0 20,0 28 15 WZW - 10 -
20.09.2018 14:00:00 27,1 19,4 22 12 ZW 1016,0 10 -
20.09.2018 13:00:00 28,0 20,0 28 15 ZW - 10 -
20.09.2018 12:00:00 28,0 18,0 22 12 ZW - 10 -
20.09.2018 11:00:00 27,4 18,1 22 12 ZW 1016,9 10 0,0
20.09.2018 10:00:00 27,0 18,0 16 9 ZZW - 10 -
20.09.2018 09:00:00 25,0 19,0 15 8 Z - 10 -

tt = temperatuur
td = dauwpunt
ff = windsnelheid
dd = windrichting
ppp = luchtdruk
vv = zicht
rr = neerslag

Weerstations in de omgeving